Home   Weather   43°31'N, 79°39'W   Past weeks
Flag for Canada

Past Weather in 43°31'N, 79°39'W, Canada — Yesterday and Last 2 Weeks

Now
72 °F

Passing clouds.


Feels Like: 75 °F
Forecast: 74 / 64 °F
Wind: 14 mph from West

Location: Toronto Pearson International Airport

Current Time: Jun 25, 2019 at 9:54:58 am

Latest Report: Jun 25, 2019 at 9:00 am


Visibility: 15 mi

Pressure: 29.74 "Hg

Humidity: 69%

Dew Point: 61 °F

Location of 43°31'N, 79°39'WLocation

Past Weather in 43°31'N, 79°39'W — Graph

°F

43°31'N, 79°39'W Temperature Yesterday

Maximum temperature yesterday: 77 °F (at 4:00 pm)
Minimum temperature yesterday: 61 °F (at 3:00 am)
Average temperature yesterday: 69 °F

High & Low Weather Summary for the Past Weeks

 TemperatureHumidityPressure
High77 °F (Jun 19, 3:00 pm)100% (Jun 10, 8:00 am)30.13 "Hg (Jun 10, 8:00 am)
Low52 °F (Jun 11, 6:00 am)29% (Jun 11, 7:00 pm)29.57 "Hg (Jun 20, 3:00 pm)
Average64 °F69%29.86 "Hg
* Reported Jun 10 8:00 am — Jun 25 8:00 am, 43°31'N, 79°39'W. Weather by CustomWeather, © 2019

Note: Actual official high and low records may vary slightly from our data, if they occured in-between our weather recording intervals... More about our weather records

Advertising

43°31'N, 79°39'W Weather History for the Previous 24 Hours

Scroll right to see more
 ConditionsComfort  
Time TempWeatherWind HumidityBarometerVisibility
8:00 am
Tue, Jun 25
70 °FPassing clouds.8 mph83%29.71 "Hg15 mi
7:00 am68 °FPassing clouds.10 mph94%29.70 "Hg15 mi
6:00 am64 °FFog.12 mph100%29.68 "Hg5 mi
5:00 am64 °FPassing clouds.13 mph100%29.66 "Hg10 mi
4:00 am64 °FPassing clouds.10 mph100%29.64 "Hg10 mi
3:00 am64 °FFog.10 mph100%29.64 "Hg6 mi
2:19 am63 °FFog.12 mph100%29.63 "Hg6 mi
2:00 am63 °FSprinkles. Fog.12 mph100%29.64 "Hg5 mi
1:53 am63 °FSprinkles. Fog.9 mph100%29.64 "Hg5 mi
1:35 am63 °FRain showers. Fog.12 mph100%29.64 "Hg3 mi
1:20 am63 °FRain showers. Fog.8 mph100%29.64 "Hg4 mi
1:07 am64 °FLots of rain. Fog.8 mph94%29.64 "Hg2 mi
12:48 am64 °FRain showers. Fog.10 mph94%29.64 "Hg5 mi
12:36 am64 °FRain showers. Fog.3 mph94%29.64 "Hg5 mi
12:14 am64 °FLots of rain. Fog.10 mph94%29.65 "Hg3 mi
11:34 pm
Mon, Jun 24
64 °FSprinkles. Mostly cloudy.9 mph94%29.66 "Hg12 mi
11:25 pm66 °FRain showers. Mostly cloudy.12 mph88%29.66 "Hg8 mi
10:00 pm70 °FSprinkles. Mostly cloudy.9 mph73%29.67 "Hg12 mi
9:00 pm70 °FSprinkles. Broken clouds.10 mph73%29.67 "Hg15 mi
8:00 pm73 °FPartly sunny.7 mph65%29.67 "Hg15 mi
7:00 pm73 °FPartly sunny.16 mph65%29.67 "Hg15 mi
6:00 pm77 °FPartly sunny.12 mph61%29.68 "Hg15 mi
5:00 pm77 °FPartly sunny.9 mph61%29.70 "Hg15 mi
4:00 pm77 °FScattered clouds.9 mph57%29.72 "Hg15 mi
3:00 pm75 °FPartly sunny.9 mph57%29.75 "Hg15 mi
2:00 pm75 °FPartly sunny.12 mph57%29.75 "Hg15 mi
1:00 pm72 °FPartly sunny.7 mph61%29.77 "Hg15 mi
12:00 pm68 °FOvercast.16 mph56%29.78 "Hg15 mi
11:00 am68 °FOvercast.10 mph56%29.81 "Hg15 mi
10:00 am70 °FMostly cloudy.8 mph53%29.81 "Hg15 mi
9:00 am66 °FOvercast.10 mph64%29.81 "Hg15 mi
Weather by CustomWeather, © 2019

See weather overview